Temperature
21 21 21 21 20 20 20 20 20 19 19 19 19 19 19 19 18 18 18 18 18 18 18 18 18 18 18 18 18 18 17 17 17 17 17 17 17 17 17 17 17 17 16
21 21 21 21 20 20 20 20 20 20 19 19 19 19 19 19 18 18 18 18 18 18 18 18 18 18 18 18 18 18 17 17 17 17 17 17 17 17 17 17 17 17 16
22 21 21 21 21 20 20 20 20 20 19 19 19 19 19 19 18 18 18 18 18 18 18 18 18 18 18 18 18 18 18 18 17 17 17 17 17 17 17 17 17 16 16
22 22 21 21 21 21 20 20 20 20 20 19 19 19 19 19 19 19 18 18 18 18 18 18 18 18 18 18 18 18 18 17 17 17 17 17 17 17 16 16 16 16 16
22 22 22 22 21 21 21 21 20 20 20 20 19 19 19 19 19 19 19 18 18 18 18 18 18 18 18 18 18 18 18 17 17 17 17 17 17 17 16 16 16 16 16
22 22 22 22 22 21 21 21 20 20 20 20 19 19 19 19 19 19 19 18 18 18 18 18 18 18 18 18 18 17 17 17 17 17 17 17 17 17 16 16 16 16 16
22 22 22 22 22 21 21 21 21 20 20 20 20 19 19 19 19 19 19 18 18 18 18 18 18 18 17 17 17 17 17 17 17 17 17 17 16 16 16 16 16 16 16
22 22 22 22 22 22 22 21 21 21 20 20 20 20 19 19 19 19 18 18 18 18 18 18 18 18 17 17 17 17 17 17 17 17 17 17 16 16 16 16 16 15 15
23 23 23 23 22 22 22 21 21 21 20 20 20 20 19 19 19 19 18 18 18 18 18 18 18 18 17 17 17 17 17 17 17 17 16 16 16 16 16 16 16 15 15
23 23 23 23 23 22 22 22 21 21 21 20 20 20 19 19 19 19 18 18 18 18 18 18 18 17 17 17 17 17 17 17 16 16 16 16 16 16 16 16 15 15 15
23 23 23 23 23 23 22 22 21 21 21 20 20 20 20 19 19 19 18 18 18 18 18 18 17 17 17 17 17 17 17 16 16 16 16 16 16 16 16 15 15 15 15
23 23 23 23 23 23 22 22 22 21 21 21 20 20 19 19 19 19 18 18 18 18 18 17 17 17 17 17 17 17 16 16 16 16 16 16 15 15 15 15 15 15 15
23 23 23 23 23 23 22 22 22 21 21 21 20 20 19 19 19 19 18 18 18 18 17 17 17 17 17 17 16 16 16 16 16 16 15 15 15 15 15 15 15 15 15
22 22 22 22 22 22 22 22 22 21 21 21 20 20 20 19 19 19 18 18 18 18 17 17 17 17 17 17 16 16 16 16 16 15 15 15 15 15 15 15 15 15 15
22 22 22 22 22 22 22 21 21 21 21 20 20 20 20 19 19 18 18 18 18 17 17 17 17 16 16 16 16 16 16 16 15 15 15 15 15 15 15 15 15 15 14
22 22 22 22 22 22 22 21 21 21 21 20 20 20 19 19 19 18 18 18 18 17 17 17 17 16 16 16 16 16 15 15 15 15 15 15 15 15 15 15 14 14 14
22 22 22 22 22 22 22 21 21 21 20 20 20 19 19 19 19 18 18 18 17 17 17 17 16 16 16 16 16 16 15 15 15 15 15 15 15 15 15 14 14 14 14
22 22 22 22 22 21 21 21 21 20 20 20 20 19 19 19 18 18 18 18 17 17 17 17 16 16 16 16 16 16 15 15 15 15 15 15 15 15 15 14 14 14 14
21 22 22 21 21 21 21 20 20 20 19 19 19 19 18 18 18 17 17 17 17 17 17 16 16 16 16 16 15 15 15 15 15 15 15 15 15 15 14 14 14 14 14
21 21 21 21 21 20 20 20 19 19 19 18 18 18 18 18 18 17 17 17 17 16 16 16 16 15 15 15 15 15 15 15 15 15 15 14 14 14 14 14 14 14 14
20 20 20 20 20 20 19 19 19 18 18 18 18 18 18 17 17 17 17 17 17 16 16 16 15 15 15 15 15 15 15 15 14 14 14 14 14 14 14 14 14 14 14
19 19 19 19 19 19 19 18 18 18 18 18 18 18 17 17 17 17 16 16 16 16 16 15 15 15 15 15 15 14 14 14 14 14 14 14 14 14 14 14 13 13 13
18 18 18 18 18 18 18 18 18 17 17 17 17 17 17 17 16 16 16 16 16 15 15 15 15 15 15 15 15 14 14 14 14 14 14 13 13 13 13 13 13 13 13
17 17 17 17 17 17 17 17 17 17 17 17 17 16 16 16 16 15 15 15 15 15 15 15 15 14 14 14 14 14 14 14 14 14 13 13 13 13 13 13 13 13 12
17 17 16 16 16 16 16 16 16 16 16 16 16 16 15 15 15 15 15 15 15 15 15 15 14 14 14 14 14 14 14 14 13 13 13 13 13 13 13 12 12 12 12
16 16 16 16 16 16 16 16 16 16 16 16 15 15 15 15 15 14 14 14 14 14 14 14 14 14 14 14 13 13 13 13 13 13 13 13 13 12 12 12 12 12 12
Wind_Speed
8 7 7 7 6 5 5 5 5 4 4 2 2 2 1 1 0 1 1 2 2 3 3 3 2 3 2 2 2 2 2 1 2 2 1 2 1 1 0 0 0 1 1
7 8 7 7 7 7 6 6 5 5 5 4 3 2 2 1 1 0 0 1 2 3 3 3 3 2 2 2 2 3 2 1 1 2 1 1 2 2 1 0 1 1 1
12 10 9 8 8 8 8 7 6 5 5 4 3 2 2 2 1 1 0 0 1 2 3 3 3 3 3 3 3 3 3 2 1 1 2 2 2 1 1 1 0 1 1
11 11 10 9 9 9 8 7 6 6 5 5 5 4 3 2 2 2 1 0 1 2 3 3 4 3 3 3 3 3 3 3 2 1 1 1 2 1 1 2 1 1 1
12 12 12 11 10 8 8 7 6 6 5 6 6 5 4 3 2 1 1 1 0 1 2 3 3 3 3 3 2 2 3 3 3 2 2 1 1 1 2 1 2 1 1
11 11 10 9 8 8 7 7 7 7 6 7 7 6 6 5 3 2 2 1 0 0 0 2 2 2 2 3 3 3 3 3 3 3 2 2 2 2 2 2 1 1 2
10 10 10 10 10 10 9 8 9 8 7 7 7 7 7 7 6 4 4 3 1 1 2 2 2 2 2 3 3 3 3 3 3 3 2 2 2 2 2 2 1 1 1
10 11 11 11 11 11 10 9 10 9 7 8 7 6 6 5 4 5 4 4 3 3 2 2 2 2 2 3 3 3 3 2 2 3 2 2 2 2 3 3 2 1 1
11 11 10 10 10 10 10 10 10 8 8 8 7 6 6 6 5 4 4 3 3 3 2 2 2 2 2 2 2 2 2 2 2 2 2 2 1 2 2 2 3 3 2
8 9 9 10 10 10 9 9 9 9 8 8 7 6 6 6 5 4 5 4 3 3 3 3 3 2 3 2 2 2 2 2 2 2 2 2 1 1 1 2 2 2 3
9 9 9 9 8 8 8 8 8 7 7 7 7 6 6 5 5 5 5 4 3 3 3 3 3 3 3 3 3 3 3 2 2 2 2 2 2 2 2 2 2 2 2
7 7 8 8 8 8 8 9 8 8 7 7 6 6 5 5 5 5 4 4 3 3 3 3 3 3 3 3 4 3 3 3 2 2 2 2 2 2 2 2 2 3 3
5 5 6 6 7 7 8 8 8 8 7 6 7 6 6 6 6 5 4 4 4 4 4 4 4 4 3 3 3 3 3 3 3 3 3 3 3 3 2 3 3 3 3
5 5 5 5 5 6 6 7 7 7 7 7 7 7 7 7 6 5 5 4 4 4 4 4 4 4 4 3 3 3 3 3 3 3 3 4 4 4 4 3 3 3 3
5 6 6 6 5 5 5 5 6 6 6 7 7 7 6 5 5 5 5 5 5 5 4 4 4 4 3 3 3 3 3 3 3 2 3 4 5 6 5 3 3 3 3
6 6 6 6 6 6 6 6 6 6 6 7 7 6 6 5 5 5 5 4 4 4 4 4 4 4 4 4 5 5 3 3 3 3 3 3 4 5 5 5 6 5 4
6 6 6 6 6 6 6 7 6 5 5 6 6 6 6 6 5 5 4 5 5 4 4 4 4 4 4 5 6 6 4 4 4 3 3 3 3 3 3 3 4 4 6
5 5 4 4 4 5 5 6 6 5 5 4 4 4 5 5 4 4 4 4 4 4 4 4 4 4 4 5 6 5 4 4 4 4 4 4 4 3 3 2 3 3 4
4 3 3 3 4 4 5 6 5 5 4 4 4 4 4 4 4 4 4 4 3 3 3 3 3 4 4 5 5 5 3 4 4 4 4 4 4 5 3 3 3 4 4
1 1 2 3 4 4 5 6 5 4 4 3 3 4 4 4 4 4 4 3 3 3 3 3 3 3 4 4 6 6 4 4 4 3 3 4 4 4 3 3 4 5 5
2 3 4 4 3 4 6 6 5 4 4 3 3 3 3 4 4 3 2 2 2 3 3 2 2 2 3 4 5 6 4 4 4 3 3 3 3 4 3 4 5 7 6
4 5 5 4 4 4 6 5 3 2 2 3 3 2 2 2 2 3 2 2 3 2 2 2 2 2 2 3 4 6 6 5 4 4 4 4 4 5 4 3 5 6 4
4 4 5 5 4 4 4 4 2 2 3 3 3 2 2 2 2 3 3 2 2 2 2 2 3 3 2 3 4 5 5 6 5 4 4 5 5 4 3 4 4 3 2
4 4 6 5 3 2 2 2 2 3 4 3 2 2 2 2 1 2 2 2 2 2 2 3 3 3 3 2 2 3 3 3 4 4 4 4 4 3 3 3 3 2 3
3 4 5 5 3 2 1 1 2 4 4 3 2 2 2 2 1 1 1 2 2 3 4 3 3 3 4 4 4 3 2 3 3 2 1 1 1 2 2 2 3 3 3
3 4 4 4 2 2 2 1 2 4 4 3 2 2 1 1 1 1 1 2 1 1 2 3 3 3 4 4 3 4 5 4 2 2 1 2 3 3 3 4 4 3 4
Wind_Direction
204 187 182 179 171 172 173 171 167 168 151 144 146 146 177 207 249 242 214 191 181 160 145 139 131 133 136 148 149 136 116 105 119 99 36 16 24 45 268 249 276 296 292
195 190 183 182 181 182 184 182 182 176 174 174 162 157 155 163 195 295 15 186 177 164 153 145 146 144 136 135 143 137 137 142 131 132 113 2 346 8 8 311 237 282 307
198 194 189 190 187 190 192 193 190 185 181 167 130 105 81 60 50 10 338 294 170 158 154 157 156 155 161 170 171 164 162 172 166 131 145 157 232 308 352 346 320 320 324
198 194 191 192 197 198 191 189 188 186 179 163 156 159 165 183 210 206 200 79 141 162 167 164 164 165 167 173 185 171 169 159 181 188 180 176 167 162 322 341 1 356 305
198 196 196 197 199 192 186 188 186 188 181 171 172 168 179 196 193 156 137 139 56 164 169 169 171 172 175 178 175 165 161 166 178 182 167 152 135 152 172 271 321 345 303
199 199 195 188 192 186 183 184 185 193 188 180 179 181 187 186 175 177 175 190 210 279 198 169 171 177 179 180 182 174 168 174 173 173 166 162 166 184 179 210 251 281 297
194 194 190 190 192 190 189 187 188 198 192 186 189 192 194 190 191 193 191 190 204 229 229 198 183 186 194 190 179 170 178 181 175 179 178 177 184 167 165 173 202 254 301
191 194 196 195 196 195 193 190 191 196 189 190 195 193 191 191 196 194 190 197 209 221 214 197 198 197 192 194 183 181 189 178 182 176 168 172 194 180 181 178 169 205 299
194 195 195 196 196 194 195 192 191 193 191 192 191 192 191 191 194 192 192 202 210 211 200 198 205 207 202 192 170 173 186 170 180 184 173 180 199 184 188 186 182 182 224
195 196 193 194 196 195 192 187 190 196 195 190 194 201 198 198 194 187 198 205 210 205 194 203 207 208 205 185 160 164 174 164 187 184 169 184 197 183 175 191 198 200 203
195 196 193 189 187 183 184 186 190 191 192 196 196 193 194 192 190 197 205 208 209 198 195 200 198 201 199 183 169 179 176 180 200 199 190 207 198 194 200 196 194 202 201
193 189 185 177 176 180 183 187 190 195 199 195 190 193 186 178 186 199 203 196 196 199 197 192 192 197 196 184 174 179 180 189 204 209 200 221 211 209 218 208 216 217 211
176 171 169 172 180 188 189 190 191 194 192 183 185 186 184 183 192 199 201 195 195 202 200 190 196 200 195 185 182 182 189 199 211 212 208 221 208 220 221 219 229 230 226
171 171 177 185 186 189 188 187 190 188 184 179 183 190 193 194 197 196 195 197 197 197 197 193 193 195 196 193 190 187 201 209 221 224 222 224 217 221 223 222 231 229 221
175 181 186 193 193 187 186 183 182 178 178 177 187 197 194 189 188 189 193 198 199 203 197 193 192 195 197 205 197 196 204 209 225 235 238 237 229 224 223 222 220 212 212
196 192 187 184 190 193 191 184 180 172 168 177 189 186 176 180 188 188 189 193 198 201 197 203 202 204 213 202 196 191 200 203 212 231 249 249 240 240 236 227 216 205 207
205 198 194 191 191 190 180 178 176 164 167 181 184 177 174 182 190 184 181 194 202 201 203 208 208 215 220 207 204 202 197 205 220 223 236 258 258 252 249 241 233 236 227
210 202 192 190 187 174 166 160 152 154 164 174 174 170 168 178 179 174 186 196 198 199 208 211 214 222 229 213 209 206 202 216 228 228 230 239 258 259 246 253 265 266 254
218 211 196 177 157 150 145 137 140 144 154 171 176 176 169 166 168 182 195 192 187 199 213 216 215 223 240 223 211 199 202 224 237 239 236 237 252 258 238 233 259 278 281
130 132 129 126 129 127 129 129 133 136 160 179 180 169 162 164 178 191 192 188 187 202 210 222 223 227 240 232 211 192 200 224 242 250 247 240 250 264 239 222 237 258 269
102 105 107 112 122 118 124 130 137 166 184 170 160 156 162 170 176 178 174 169 181 192 203 214 239 241 245 242 220 205 209 217 229 245 256 253 254 259 254 227 234 247 255
86 100 104 98 98 111 122 132 158 184 152 133 136 144 150 153 153 147 147 152 156 165 193 216 258 274 269 254 239 220 219 220 224 239 247 253 257 257 257 243 252 258 252
99 98 110 102 95 106 122 144 174 149 128 123 132 140 131 129 140 153 163 165 166 178 206 220 251 273 277 263 250 242 234 225 226 244 251 261 267 266 263 262 263 246 237
108 102 107 109 98 100 139 162 150 131 128 130 131 123 122 126 137 154 168 176 189 199 212 226 246 264 273 269 261 253 245 238 237 253 264 264 265 256 265 278 265 242 237
103 107 116 119 116 110 112 101 121 126 123 124 123 119 131 147 159 160 177 195 216 213 209 226 228 237 262 265 237 222 237 237 238 235 258 274 282 286 285 278 272 259 252
106 105 96 94 95 85 65 72 125 129 124 119 120 126 136 148 153 150 39 24 257 262 216 230 231 245 251 271 256 239 239 234 195 166 244 264 269 268 270 271 269 259 256
Height
1518 1521 1523 1526 1527 1529 1530 1532 1533 1535 1536 1537 1538 1539 1540 1541 1541 1542 1542 1542 1543 1543 1543 1544 1545 1546 1547 1548 1548 1549 1550 1550 1551 1551 1552 1552 1552 1552 1552 1552 1552 1552 1552
1517 1520 1522 1525 1526 1528 1530 1531 1533 1534 1536 1537 1538 1539 1540 1540 1541 1542 1542 1542 1543 1543 1544 1544 1545 1546 1547 1547 1548 1549 1549 1549 1550 1551 1551 1551 1552 1551 1551 1551 1551 1551 1551
1513 1516 1519 1522 1525 1526 1528 1530 1532 1534 1536 1537 1538 1539 1539 1540 1540 1541 1541 1542 1543 1543 1544 1544 1545 1545 1546 1547 1547 1548 1548 1549 1549 1550 1550 1550 1550 1550 1550 1549 1550 1550 1550
1510 1513 1516 1520 1522 1525 1527 1529 1531 1533 1534 1536 1537 1538 1538 1539 1539 1540 1541 1542 1542 1543 1543 1544 1544 1544 1545 1546 1546 1546 1547 1548 1548 1548 1548 1549 1549 1549 1549 1549 1549 1548 1548
1507 1510 1513 1516 1520 1523 1525 1527 1530 1532 1533 1534 1535 1537 1537 1538 1539 1540 1540 1541 1542 1542 1543 1543 1543 1543 1544 1544 1545 1545 1546 1546 1546 1547 1547 1547 1547 1548 1548 1547 1548 1547 1547
1504 1507 1511 1514 1517 1520 1523 1525 1527 1529 1531 1532 1534 1535 1536 1537 1538 1539 1539 1540 1541 1541 1542 1542 1542 1542 1542 1543 1543 1544 1544 1544 1544 1545 1545 1545 1546 1546 1546 1546 1545 1545 1546
1500 1504 1507 1510 1514 1517 1519 1522 1525 1526 1528 1530 1531 1532 1534 1535 1536 1537 1538 1539 1539 1540 1540 1540 1541 1541 1541 1542 1542 1542 1542 1543 1543 1543 1543 1544 1544 1544 1544 1544 1544 1544 1544
1496 1500 1503 1506 1510 1513 1516 1519 1521 1524 1526 1527 1529 1530 1532 1533 1534 1535 1536 1537 1538 1538 1539 1539 1539 1539 1540 1540 1540 1540 1541 1541 1541 1541 1541 1542 1542 1542 1543 1543 1542 1542 1542
1493 1496 1500 1503 1507 1510 1513 1516 1518 1521 1523 1525 1527 1528 1530 1531 1532 1533 1534 1535 1536 1536 1537 1537 1537 1537 1537 1538 1538 1538 1539 1539 1539 1540 1540 1540 1540 1541 1541 1541 1541 1541 1540
1491 1494 1497 1500 1504 1507 1510 1513 1516 1518 1520 1522 1524 1526 1527 1529 1530 1531 1532 1533 1533 1534 1534 1535 1535 1535 1535 1535 1536 1536 1536 1537 1537 1538 1538 1538 1539 1539 1539 1539 1539 1539 1539
1488 1491 1494 1498 1501 1504 1507 1509 1512 1515 1517 1519 1521 1523 1524 1526 1527 1528 1529 1530 1531 1532 1532 1532 1532 1532 1533 1533 1533 1534 1534 1535 1535 1535 1536 1536 1536 1537 1537 1537 1537 1537 1537
1486 1489 1492 1495 1498 1500 1503 1506 1509 1511 1514 1516 1518 1520 1521 1523 1524 1525 1527 1528 1528 1529 1530 1530 1530 1530 1530 1531 1531 1532 1532 1533 1533 1533 1534 1534 1534 1534 1535 1535 1535 1535 1534
1485 1488 1490 1493 1495 1498 1500 1503 1506 1508 1511 1513 1515 1517 1518 1520 1521 1522 1524 1524 1525 1526 1527 1527 1527 1527 1528 1528 1529 1530 1530 1530 1531 1531 1531 1532 1532 1532 1532 1532 1532 1532 1531
1483 1486 1488 1490 1492 1495 1498 1500 1503 1505 1508 1510 1512 1513 1515 1516 1518 1519 1521 1522 1522 1523 1524 1525 1525 1525 1525 1526 1527 1527 1527 1528 1528 1529 1529 1529 1529 1529 1529 1529 1529 1528 1528
1482 1483 1485 1487 1490 1492 1495 1498 1501 1503 1505 1507 1509 1510 1512 1514 1515 1516 1517 1519 1520 1520 1521 1522 1522 1522 1523 1523 1524 1524 1525 1525 1525 1526 1526 1527 1527 1527 1527 1527 1526 1526 1526
1479 1481 1483 1485 1487 1490 1492 1495 1498 1500 1502 1503 1505 1507 1509 1511 1512 1513 1514 1515 1516 1517 1518 1519 1519 1519 1520 1521 1521 1522 1522 1522 1522 1523 1523 1524 1524 1524 1524 1524 1524 1523 1523
1477 1479 1480 1482 1485 1487 1490 1492 1495 1497 1499 1501 1503 1504 1506 1507 1509 1509 1511 1512 1513 1514 1515 1516 1516 1516 1517 1518 1519 1519 1519 1519 1520 1520 1520 1520 1521 1521 1521 1521 1520 1520 1520
1476 1477 1479 1481 1483 1485 1487 1490 1492 1494 1497 1499 1500 1502 1503 1504 1505 1506 1507 1508 1510 1511 1511 1512 1513 1513 1514 1515 1516 1516 1516 1516 1516 1517 1517 1517 1517 1517 1517 1517 1517 1517 1516
1475 1476 1478 1479 1481 1483 1485 1487 1489 1492 1494 1496 1497 1499 1500 1502 1503 1504 1504 1505 1507 1508 1508 1509 1509 1510 1510 1512 1512 1513 1513 1513 1513 1513 1514 1514 1514 1514 1514 1514 1513 1513 1513
1473 1474 1476 1478 1479 1481 1483 1485 1487 1490 1492 1494 1495 1497 1498 1499 1500 1501 1502 1503 1505 1505 1506 1507 1507 1508 1508 1509 1509 1509 1509 1509 1509 1510 1510 1510 1511 1511 1510 1510 1510 1509 1509
1471 1472 1474 1476 1478 1480 1482 1484 1486 1488 1490 1492 1493 1495 1496 1497 1498 1499 1500 1501 1502 1503 1504 1504 1505 1505 1505 1506 1506 1506 1505 1505 1505 1506 1506 1506 1507 1507 1506 1506 1505 1505 1505
1469 1471 1472 1474 1476 1479 1481 1483 1485 1487 1489 1490 1492 1493 1494 1495 1496 1497 1498 1499 1500 1500 1500 1501 1502 1502 1503 1503 1503 1502 1502 1502 1502 1502 1503 1503 1503 1503 1502 1502 1502 1501 1501
1469 1471 1472 1473 1475 1477 1480 1482 1484 1486 1487 1488 1489 1490 1491 1493 1494 1495 1496 1497 1497 1497 1498 1499 1499 1500 1500 1500 1499 1499 1499 1499 1499 1499 1499 1499 1499 1499 1498 1498 1498 1497 1496
1469 1470 1471 1473 1475 1477 1479 1482 1483 1484 1485 1486 1487 1488 1489 1491 1492 1493 1494 1494 1495 1495 1496 1496 1497 1497 1497 1497 1497 1497 1496 1496 1496 1496 1496 1495 1495 1494 1494 1494 1493 1493 1492
1469 1471 1471 1473 1475 1477 1479 1481 1482 1483 1483 1484 1485 1487 1488 1489 1490 1491 1492 1493 1493 1494 1494 1494 1494 1494 1494 1494 1494 1493 1493 1493 1493 1492 1492 1491 1490 1489 1489 1489 1489 1488 1487
1469 1470 1471 1473 1475 1476 1478 1479 1481 1482 1482 1483 1484 1485 1486 1488 1489 1489 1490 1491 1492 1492 1492 1492 1492 1492 1492 1491 1491 1490 1490 1490 1490 1489 1488 1487 1486 1486 1485 1485 1484 1484 1483